[[{"header":{"parameterUnit":"m.s-1","parameterCategory":1,"la1":30.2991,"la2":30.254,"lo1":-89.0895,"lo2":-89.0444,"dy":0.0017,"dx":0.0017,"nx":28,"ny":28,"refTime":"2025-02-12T03:00:00:Z","depth":0,"parameterNumber":2,"parameterNumberName":"U-component_of_WINDS"},"data":[0,0,0,0,0,0,0,0,0,0,0,0,0,0,0,0,0,0,0,0,0,0,0,0,0,0,0,0,0,0,0,0,0,0,0,0,0,0,0,0,0,0,0,0,0,0,0,0,0,0,0,0,0,0,0,0,0,0,-2.1876,-2.1876,0,-2.1937,-2.1938,-2.1938,-2.1879,-2.1877,-2.1874,-2.1872,-2.1937,-2.1941,-2.1945,0,0,0,0,0,0,0,0,0,0,0,0,0,-2.1709,-2.1713,-2.1876,-2.1876,-2.1877,-2.1937,-2.1938,-2.1938,-2.1879,-2.1877,-2.1874,-2.1871,-2.1936,-2.1941,-2.1945,0,0,0,0,0,0,0,0,0,0,0,0,0,-2.1777,-2.1714,-2.1875,-2.1855,-2.1854,-2.1937,-2.1938,-2.1939,-2.188,-2.1876,-2.1873,-2.187,-2.1934,-2.194,-2.1946,-2.2053,0,0,-2.1964,-2.1967,0,0,0,0,0,0,0,0,-2.1773,-2.1783,-2.1857,-2.1856,-2.1855,-2.1897,-2.1903,-2.1977,-2.1881,-2.187,-2.1872,-2.1868,-2.1927,-2.1933,-2.1952,-2.2056,-2.2059,-2.1964,-2.1968,-2.1971,-2.1972,0,0,0,0,0,0,0,-2.1769,-2.178,-2.19,-2.1858,-2.1857,-2.1843,-2.1849,-2.1917,-2.1918,-2.1871,-2.1867,-2.1875,-2.1926,-2.1947,-2.1953,-2.206,-2.1964,-2.197,-2.1973,-2.1976,-2.2255,-2.2259,0,0,0,0,0,0,-2.1766,-2.1777,-2.1898,-2.1902,-2.1805,-2.1849,-2.1855,-2.1887,-2.1917,-2.1918,-2.1877,-2.1872,-2.1938,-2.1947,-2.1956,-2.2084,-2.1971,-2.1976,-2.1979,-2.2251,-2.2256,-2.226,0,0,0,0,0,0,-2.1763,-2.1777,-2.1895,-2.1838,-2.1852,-2.1856,-2.1892,-2.189,-2.1911,-2.1922,-2.1922,-2.1899,-2.1936,-2.1947,-2.2029,-2.2085,-2.1979,-2.1984,-2.2247,-2.2253,-2.2258,-2.2341,0,0,0,0,0,0,-2.1758,-2.1777,-2.1817,-2.184,-2.1855,-2.1968,-2.1895,-2.1894,-2.1921,-2.1914,-2.1942,-2.1943,-2.1934,-2.2021,-2.2035,-2.2091,-2.1989,-2.2242,-2.2249,-2.2256,-2.2333,-2.2348,-2.2362,0,0,0,0,0,-2.1752,-2.1838,-2.1819,-2.1834,-2.1906,-2.1971,-2.198,-2.1968,-2.1926,-2.1967,-2.1974,-2.1942,-2.2076,-2.203,-2.2045,-2.2104,-2.2238,-2.2247,-2.2256,-2.2326,-2.2345,-2.2361,0,0,0,0,0,0,-2.1823,-2.1841,-2.182,-2.1916,-2.1942,-2.1961,-2.2013,-2.1988,-2.2028,-2.202,-2.2002,-2.2009,-2.2096,-2.2108,-2.2056,-2.2209,-2.215,-2.2163,-2.2199,-2.2217,-2.2231,-2.2228,-2.1994,0,0,0,0,0,-2.185,-2.1901,-2.1914,-2.1997,-2.2011,-2.201,-2.2038,-2.2025,-2.2052,-2.2064,-2.2076,-2.2105,-2.2153,-2.2185,-2.223,-2.2333,-2.2339,-2.2382,-2.2396,-2.2408,-2.2419,-2.2475,-2.2495,-2.2289,-2.2289,-2.2289,0,0,-2.1906,-2.1922,-2.1955,-2.2011,-2.2031,-2.2085,-2.202,-2.2079,-2.2119,-2.2073,-2.2151,-2.2161,-2.2192,-2.2285,-2.2327,-2.2298,-2.2477,-2.2419,-2.2428,-2.2433,-2.2486,-2.2506,-2.2523,-2.2295,-2.2294,-2.2293,0,0,-2.2036,-2.2052,-2.2124,-2.2144,-2.2173,-2.2172,-2.2189,-2.2211,-2.2216,-2.2294,-2.226,-2.2307,-2.2391,-2.2414,-2.2437,-2.2574,-2.2547,-2.2589,-2.2666,-2.272,-2.2737,-2.2751,-2.2801,-2.2819,-2.26,-2.26,-2.26,0,-2.2102,-2.2181,-2.2164,-2.2226,-2.2252,-2.2211,-2.2283,-2.2304,-2.2347,-2.2367,-2.2333,-2.2436,-2.2454,-2.2552,-2.2586,-2.2605,-2.2625,-2.2587,-2.2735,-2.275,-2.2763,-2.2811,-2.2829,-2.2605,-2.2605,-2.2604,-2.2604,0,-2.2262,-2.2317,-2.2371,-2.2413,-2.2445,-2.2512,-2.2505,-2.2539,-2.2524,-2.2526,-2.2606,-2.2625,-2.2674,-2.2695,-2.2681,-2.2792,-2.2773,-2.2738,-2.2679,-2.2788,-2.2832,-2.285,-2.2613,-2.2611,-2.2609,-2.2608,0,0,-2.244,-2.247,-2.249,-2.2509,-2.2538,-2.2581,-2.2646,-2.2692,-2.2723,-2.2753,-2.2808,-2.2879,-2.2846,-2.2872,-2.286,-2.2908,-2.3016,-2.2866,-2.2867,-2.2895,-2.3141,-2.3169,-2.319,-2.2998,-2.3001,-2.3004,-2.3139,0,-2.2571,-2.2684,-2.267,-2.2778,-2.283,-2.2791,-2.2847,-2.2872,-2.2875,-2.2919,-2.2923,-2.2974,-2.2926,-2.2942,-2.2987,-2.2994,-2.3066,-2.2983,-2.305,-2.3052,-2.3045,-2.3213,-2.3243,-2.3369,-2.3156,-2.3159,-2.3161,0,-2.2741,-2.2777,-2.289,-2.2911,-2.2932,-2.2983,-2.3025,-2.3067,-2.3094,-2.3093,-2.3121,-2.31,-2.3166,-2.3103,-2.3194,-2.3139,-2.3165,-2.3172,-2.3176,-2.3184,-2.3115,-2.3226,-2.3409,-2.3429,-2.3188,-2.3186,-2.3184,0,-2.2861,-2.2938,-2.3016,-2.3032,-2.3058,-2.3095,-2.3108,-2.3131,-2.316,-2.3196,-2.3214,-2.3258,-2.3282,-2.3316,-2.3308,-2.3263,-2.3401,-2.3338,-2.3403,-2.3404,-2.3436,-2.3434,-2.3627,-2.345,-2.345,-2.3449,-2.3449,0,-2.3011,-2.3082,-2.307,-2.3118,-2.3197,-2.3179,-2.3258,-2.3266,-2.3286,-2.3336,-2.3304,-2.3351,-2.3336,-2.3383,-2.3376,-2.3453,-2.3464,-2.3465,-2.3463,-2.347,-2.347,-2.3488,-2.3479,-2.3454,-2.3453,-2.3452,-2.3451,0,-2.316,-2.3154,-2.3237,-2.3254,-2.326,-2.3317,-2.3332,-2.3378,-2.3377,-2.344,-2.3454,-2.3455,-2.3508,-2.3502,-2.3561,-2.3557,-2.3653,-2.3639,-2.3644,-2.3641,-2.3707,-2.3702,-2.392,-2.3948,-2.3751,-2.3753,-2.3755,0,-2.3256,-2.331,-2.3333,-2.3363,-2.3378,-2.3428,-2.3457,-2.3441,-2.3473,-2.3506,-2.3548,-2.3598,-2.3637,-2.3724,-2.373,-2.3775,-2.3763,-2.3836,-2.377,-2.3775,-2.3766,-2.3764,-2.377,-2.385,-2.3853,-2.3854,-2.3856,0,-2.3429,-2.3424,-2.3466,-2.3508,-2.3543,-2.3576,-2.3605,-2.3632,-2.3619,-2.3656,-2.3709,-2.374,-2.38,-2.385,-2.3892,-2.3906,-2.388,-2.3876,-2.3894,-2.3902,-2.3903,-2.3905,-2.3681,-2.3872,-2.387,-2.3869,-2.3868,-2.3868,-2.3556,-2.3602,-2.3626,-2.3674,-2.3694,-2.3722,-2.3765,-2.377,-2.3814,-2.3862,-2.385,-2.391,-2.3935,-2.3989,-2.4007,-2.4054,-2.4028,-2.4053,-2.406,-2.4067,-2.4075,-2.3894,-2.4062,-2.4061,-2.4061,-2.406,-2.406,0,-2.3729,-2.3741,-2.3786,-2.3827,-2.3866,-2.3836,-2.3866,-2.39,-2.3954,-2.3979,-2.4018,-2.4079,-2.4127,-2.4136,-2.4183,-2.4219,-2.4208,-2.4232,-2.423,-2.4234,-2.4096,-2.4076,-2.424,-2.424,-2.424,-2.424,-2.424,-2.424,-2.3823,-2.39,-2.3897,-2.3983,-2.3995,-2.4054,-2.4074,-2.41,-2.4119,-2.4189,-2.4229,-2.4234,-2.4253,-2.43,-2.4343,-2.4344,-2.4364,-2.4393,-2.439,-2.4261,-2.4243,-2.4226,-2.4208,-2.4396,-2.4397,-2.4524,-2.4525,-2.4526]},{"header":{"parameterUnit":"m.s-1","parameterCategory":1,"la1":30.2991,"la2":30.254,"lo1":-89.0895,"lo2":-89.0444,"dy":0.0017,"dx":0.0017,"nx":28,"ny":28,"refTime":"2025-02-12T03:00:00:Z","depth":0,"parameterNumber":3,"parameterNumberName":"V-component_of_WINDS"},"data":[0,0,0,0,0,0,0,0,0,0,0,0,0,0,0,0,0,0,0,0,0,0,0,0,0,0,0,0,0,0,0,0,0,0,0,0,0,0,0,0,0,0,0,0,0,0,0,0,0,0,0,0,0,0,0,0,0,0,-6.7214,-6.7215,0,-6.729,-6.7291,-6.7292,-6.7207,-6.7204,-6.7201,-6.7198,-6.7272,-6.7277,-6.7282,0,0,0,0,0,0,0,0,0,0,0,0,0,-6.699,-6.6995,-6.7214,-6.7215,-6.7216,-6.729,-6.7291,-6.7292,-6.7208,-6.7204,-6.72,-6.7197,-6.727,-6.7276,-6.7282,0,0,0,0,0,0,0,0,0,0,0,0,0,-6.7079,-6.6996,-6.7214,-6.7183,-6.7181,-6.729,-6.7291,-6.7292,-6.7209,-6.7204,-6.7199,-6.7195,-6.7268,-6.7276,-6.7283,-6.7425,0,0,-6.7306,-6.7309,0,0,0,0,0,0,0,0,-6.7074,-6.7087,-6.7186,-6.7185,-6.7183,-6.7234,-6.7239,-6.7337,-6.721,-6.7198,-6.7198,-6.7192,-6.7263,-6.7271,-6.7295,-6.7428,-6.7432,-6.7306,-6.7311,-6.7314,-6.7316,0,0,0,0,0,0,0,-6.7068,-6.7084,-6.7244,-6.7188,-6.7186,-6.7164,-6.7171,-6.7257,-6.7256,-6.7199,-6.7193,-6.7203,-6.7261,-6.7289,-6.7297,-6.7433,-6.7306,-6.7313,-6.7317,-6.732,-6.7685,-6.769,0,0,0,0,0,0,-6.7066,-6.7079,-6.7241,-6.7246,-6.7116,-6.7172,-6.718,-6.7223,-6.7255,-6.7256,-6.7207,-6.7199,-6.7278,-6.7288,-6.7299,-6.7467,-6.7314,-6.7321,-6.7325,-6.7679,-6.7686,-6.7691,0,0,0,0,0,0,-6.7062,-6.7081,-6.7238,-6.7161,-6.7179,-6.718,-6.723,-6.7227,-6.7254,-6.7262,-6.7261,-6.7236,-6.7275,-6.7288,-6.7394,-6.7468,-6.7324,-6.7331,-6.7673,-6.7681,-6.7689,-6.7804,0,0,0,0,0,0,-6.7056,-6.708,-6.7135,-6.7163,-6.7184,-6.7334,-6.7234,-6.7232,-6.7268,-6.7257,-6.7288,-6.7288,-6.7272,-6.7384,-6.7402,-6.7476,-6.7337,-6.7667,-6.7677,-6.7686,-6.7793,-6.7814,-6.7833,0,0,0,0,0,-6.7048,-6.7164,-6.7139,-6.7159,-6.7253,-6.7339,-6.7351,-6.7331,-6.7274,-6.7328,-6.7333,-6.7288,-6.7457,-6.7395,-6.7415,-6.7492,-6.7662,-6.7674,-6.7685,-6.7784,-6.781,-6.7832,0,0,0,0,0,0,-6.7144,-6.7167,-6.7139,-6.7268,-6.7302,-6.7324,-6.7393,-6.7359,-6.7408,-6.7397,-6.7368,-6.7376,-6.7488,-6.75,-6.7431,-6.763,-6.755,-6.7566,-6.7619,-6.7643,-6.7663,-6.7657,-6.7343,0,0,0,0,0,-6.718,-6.7249,-6.7265,-6.7377,-6.7396,-6.7392,-6.7428,-6.741,-6.7444,-6.7457,-6.747,-6.7503,-6.7563,-6.7604,-6.766,-6.7795,-6.7799,-6.7857,-6.7877,-6.7893,-6.7907,-6.7978,-6.8004,-6.773,-6.773,-6.773,0,0,-6.7255,-6.7277,-6.7322,-6.7397,-6.7422,-6.7492,-6.7405,-6.7483,-6.7535,-6.7469,-6.757,-6.758,-6.7615,-6.7736,-6.779,-6.7749,-6.7984,-6.7908,-6.7921,-6.7926,-6.7993,-6.8019,-6.8042,-6.7738,-6.7736,-6.7735,0,0,-6.7429,-6.7453,-6.7549,-6.7575,-6.7613,-6.761,-6.7633,-6.766,-6.7665,-6.7766,-6.7718,-6.7778,-6.7883,-6.791,-6.7937,-6.8121,-6.808,-6.814,-6.8242,-6.8312,-6.8333,-6.8352,-6.8417,-6.8441,-6.8154,-6.8154,-6.8154,0,-6.7518,-6.7624,-6.7602,-6.7684,-6.7718,-6.7663,-6.7759,-6.7785,-6.7839,-6.7863,-6.7818,-6.7948,-6.7968,-6.8093,-6.8138,-6.8163,-6.8187,-6.8136,-6.8332,-6.8351,-6.8369,-6.843,-6.8454,-6.8161,-6.816,-6.816,-6.8159,0,-6.7731,-6.7805,-6.7877,-6.7933,-6.7975,-6.8064,-6.8053,-6.8098,-6.8076,-6.8077,-6.818,-6.8201,-6.8261,-6.8289,-6.8268,-6.8412,-6.8386,-6.8337,-6.8255,-6.8402,-6.8459,-6.8482,-6.8171,-6.8169,-6.8167,-6.8165,0,0,-6.7967,-6.8009,-6.8036,-6.806,-6.8098,-6.8154,-6.824,-6.8299,-6.8338,-6.8377,-6.8447,-6.8537,-6.8492,-6.8524,-6.8504,-6.8566,-6.8709,-6.8509,-6.8509,-6.8545,-6.8868,-6.8904,-6.8932,-6.8682,-6.8686,-6.869,-6.8864,0,-6.8141,-6.8291,-6.8273,-6.8416,-6.8484,-6.8432,-6.8506,-6.8537,-6.8539,-6.8596,-6.8598,-6.8662,-6.8598,-6.8617,-6.8675,-6.8679,-6.8773,-6.8666,-6.8746,-6.8749,-6.8738,-6.8961,-6.9,-6.9164,-6.8887,-6.889,-6.8893,0,-6.8364,-6.8413,-6.8563,-6.859,-6.8618,-6.8685,-6.8738,-6.8793,-6.8826,-6.8823,-6.8859,-6.8828,-6.8912,-6.883,-6.8944,-6.8872,-6.8903,-6.891,-6.8916,-6.8922,-6.883,-6.8973,-6.9216,-6.924,-6.8928,-6.8925,-6.8923,0,-6.8521,-6.8624,-6.8727,-6.8749,-6.8783,-6.8832,-6.8848,-6.8876,-6.8913,-6.8958,-6.8981,-6.9036,-6.9065,-6.9107,-6.9092,-6.9033,-6.9209,-6.9125,-6.9208,-6.9209,-6.9247,-6.9245,-6.9498,-6.9269,-6.9268,-6.9268,-6.9267,0,-6.8717,-6.8811,-6.8797,-6.8861,-6.8964,-6.8942,-6.9043,-6.9053,-6.9079,-6.9142,-6.9099,-6.9159,-6.9135,-6.9193,-6.9181,-6.9277,-6.9291,-6.929,-6.9286,-6.9294,-6.9294,-6.9314,-6.9302,-6.9274,-6.9273,-6.9271,-6.927,0,-6.8909,-6.8905,-6.9013,-6.9037,-6.9045,-6.912,-6.914,-6.9198,-6.9198,-6.9278,-6.9295,-6.9294,-6.9359,-6.9349,-6.9421,-6.9413,-6.9533,-6.9515,-6.9522,-6.9518,-6.9601,-6.9594,-6.9875,-6.9911,-6.9659,-6.9662,-6.9664,0,-6.9035,-6.9106,-6.9138,-6.9178,-6.9198,-6.9263,-6.93,-6.9281,-6.9321,-6.9364,-6.9417,-6.9479,-6.9528,-6.9635,-6.9639,-6.9694,-6.9676,-6.9771,-6.9684,-6.969,-6.9677,-6.9673,-6.9679,-6.9788,-6.9791,-6.9794,-6.9795,0,-6.9258,-6.9252,-6.9308,-6.9364,-6.9411,-6.9453,-6.9491,-6.9526,-6.9509,-6.9556,-6.9624,-6.9662,-6.9736,-6.9798,-6.9849,-6.9863,-6.9827,-6.9823,-6.9845,-6.9854,-6.9855,-6.9855,-6.9569,-6.9816,-6.9814,-6.9813,-6.9812,-6.9811,-6.942,-6.948,-6.9513,-6.9577,-6.9604,-6.964,-6.9697,-6.9703,-6.976,-6.982,-6.9804,-6.988,-6.991,-6.9975,-6.9995,-7.0053,-7.0018,-7.005,-7.0058,-7.0066,-7.0076,-6.9846,-7.0063,-7.0062,-7.0061,-7.0061,-7.006,0,-6.964,-6.9658,-6.9718,-6.9773,-6.9823,-6.9786,-6.9825,-6.9869,-6.9938,-6.9969,-7.0018,-7.0095,-7.0155,-7.0164,-7.022,-7.0265,-7.0249,-7.028,-7.0276,-7.028,-7.0105,-7.008,-7.0292,-7.0291,-7.0291,-7.0291,-7.0291,-7.0291,-6.976,-6.9861,-6.9859,-6.9971,-6.9988,-7.0064,-7.009,-7.0123,-7.0148,-7.0236,-7.0286,-7.0292,-7.0314,-7.0371,-7.0424,-7.0425,-7.0447,-7.0485,-7.0479,-7.0315,-7.0292,-7.027,-7.0247,-7.049,-7.049,-7.0649,-7.065,-7.0652]}]]